{"data":{"norad_id":55621,"intl_designator":"2023-020BE","name":"STARLINK-5709","alt_names":[],"object_type":"PAYLOAD","status":"ACTIVE","operator":null,"country":"US","launch_date":"2023-02-12","launch_site_code":"AFETR","launch_vehicle":null,"mission":null,"orbit_class":"UNKNOWN","rcs_meters":null,"size_class":null,"mass_kg":null,"dimensions":null,"purposes":["comms"],"wikipedia_slug":null,"has_3d_model":false,"image_url":null,"decayed_at":null,"tle_current":{"epoch":"2026-05-24T19:26:06.808992Z","epoch_age_seconds":92306,"freshness":"FRESH","line1":"1 55621U 23020BE  26144.80980103 -.00000627  00000+0 -13259-4 0  9992","line2":"2 55621  43.0019 284.1046 0001570 274.0469  86.0203 15.27574630180680","mean_motion":15.2757463,"eccentricity":0.000157,"inclination_deg":43.0019,"raan_deg":284.1046,"arg_perigee_deg":274.0469,"mean_anomaly_deg":86.0203,"bstar":-1.3259e-5,"rev_number":18068,"period_min":94.267080096768,"perigee_km":481.98796705701,"apogee_km":484.14238454021,"semimajor_km":6861.2021757986,"source":"CELESTRAK","updated_at":"2026-05-25T13:38:17.845742Z"}}}